Wind_Speed
18 18 16 14 12 11 10 10 10 10 9 9 9 9 10 11 12 13 13 13 13 12 11 9 8 7 6 6 5 5 5 5 5 5 5 5 4 4 3 1 1 2 2
16 15 13 10 8 6 6 7 7 7 7 6 6 7 7 8 9 10 11 11 11 11 9 8 6 5 5 4 4 4 3 3 3 3 3 4 4 4 3 2 1 3 4
12 11 9 7 5 4 3 4 4 4 4 3 4 5 6 7 7 8 9 9 10 10 9 8 6 4 3 2 2 3 3 3 2 2 2 3 4 4 4 2 0 2 4
8 7 6 5 4 3 3 2 2 2 1 1 3 5 6 7 7 7 8 9 9 9 9 8 7 5 3 3 3 3 3 3 3 3 2 2 2 3 4 3 2 0 2
6 5 4 3 2 2 2 2 2 2 2 2 3 5 6 7 8 8 9 9 10 10 10 10 9 7 6 5 4 5 4 4 4 4 3 3 2 1 2 2 2 1 0
5 4 3 2 1 2 2 4 4 4 4 3 3 4 5 6 7 8 9 9 10 10 10 10 11 10 8 7 6 6 6 6 5 5 4 3 3 2 1 1 1 1 1
5 4 4 3 3 4 5 6 7 7 6 4 3 3 4 5 7 9 9 9 9 9 10 10 11 11 10 8 7 7 7 8 7 6 5 5 5 5 3 3 3 4 3
5 5 5 4 5 6 7 8 8 8 7 6 4 4 5 6 8 9 10 9 8 8 9 9 10 11 11 10 8 7 8 9 9 8 7 6 6 7 6 5 5 5 4
6 6 5 6 6 7 8 9 9 8 8 7 7 7 8 10 11 11 11 9 7 6 7 8 9 10 11 11 9 7 8 9 10 10 9 8 8 8 8 8 7 6 5
6 6 6 7 8 9 9 10 10 9 9 9 10 11 12 13 13 12 11 10 8 7 7 7 8 10 10 11 10 8 7 9 11 12 12 10 10 10 10 10 10 9 8
8 8 8 8 9 10 10 11 11 11 10 11 12 13 15 15 15 13 12 10 9 9 7 7 8 9 10 11 11 11 9 8 11 13 14 13 13 12 12 12 12 11 11
9 9 9 9 10 10 11 12 12 13 13 13 13 14 15 16 15 14 13 11 11 11 10 8 7 8 9 10 11 12 11 9 9 11 14 15 15 15 14 15 15 13 12
9 10 10 10 10 11 12 12 13 14 14 14 14 15 16 16 16 15 14 13 13 14 14 12 10 9 9 10 11 12 13 12 11 11 13 15 17 17 17 16 16 16 15
11 12 12 13 13 14 15 15 16 16 16 16 17 17 18 18 18 18 17 17 16 17 16 16 14 12 12 11 11 11 12 13 14 14 14 15 17 19 19 18 17 17 17
16 16 16 17 18 19 19 21 21 21 21 20 20 20 21 21 22 22 22 21 20 20 19 19 18 16 15 15 14 13 13 14 15 16 17 17 18 20 21 21 20 19 19
22 22 22 22 23 24 24 25 25 26 25 24 24 24 24 24 25 25 25 25 24 23 23 22 21 21 19 18 18 18 17 17 17 17 18 19 20 21 22 23 23 23 21
28 28 28 28 29 29 30 30 31 31 31 30 30 29 29 29 29 29 28 27 27 25 25 24 24 24 23 22 22 22 22 22 22 21 21 21 21 22 23 24 25 25 25
33 33 33 33 34 35 36 36 36 36 36 36 36 36 36 36 36 36 35 33 31 29 28 27 27 27 27 27 27 26 26 27 26 25 24 24 24 24 24 25 27 27 27
37 37 37 38 38 40 41 41 41 41 40 40 41 41 41 42 42 42 42 41 38 35 33 30 30 30 31 31 31 31 30 30 30 30 29 28 27 27 27 27 28 29 30
41 41 41 42 42 44 45 45 45 44 44 44 45 46 47 48 47 47 47 46 44 41 37 35 34 34 34 34 34 33 32 32 32 32 32 32 31 31 31 30 30 31 31
43 43 44 44 45 46 47 47 48 47 47 48 49 50 50 51 52 52 52 51 49 45 40 38 37 36 36 36 36 34 33 33 33 33 34 34 34 33 33 33 33 33 33
42 43 44 44 46 48 49 50 51 51 50 50 50 51 53 54 56 57 56 54 52 48 44 40 40 39 38 37 36 35 33 34 35 34 35 35 35 35 35 35 34 34 35
42 43 45 47 48 49 50 51 51 52 51 51 53 54 54 54 55 57 57 56 54 49 45 43 41 40 38 37 36 35 34 34 35 35 35 37 36 36 36 36 36 35 36
44 45 46 47 48 49 51 52 52 53 54 54 56 57 55 54 54 55 53 53 53 49 45 42 39 37 36 35 35 35 36 36 35 33 33 35 36 35 35 35 36 37 37
45 46 47 48 50 51 53 55 56 57 58 59 59 59 57 55 54 49 46 46 44 44 41 38 36 35 34 34 34 35 36 36 35 32 29 31 33 33 34 34 35 36 36
44 45 47 49 51 53 55 57 59 60 61 62 62 61 58 56 52 47 43 39 38 38 36 34 34 34 33 34 35 35 35 34 32 30 27 27 30 31 32 33 33 34 35
Wind_Direction
124 125 126 129 130 130 130 129 127 124 118 106 92 82 79 79 79 79 76 75 74 73 72 71 70 68 65 60 55 49 48 49 50 51 51 48 45 41 43 66 148 181 142
129 129 130 132 135 138 140 139 138 136 129 111 86 67 60 60 63 64 65 66 65 63 63 64 63 62 57 49 42 37 30 30 35 41 45 43 36 25 20 26 194 214 218
134 135 134 135 139 149 159 157 153 149 140 118 81 57 49 48 50 52 53 51 50 48 46 45 45 42 37 21 4 2 3 358 2 11 26 39 39 35 30 23 356 222 223
140 143 142 145 152 165 182 185 180 172 153 102 57 46 44 42 40 39 38 36 34 32 29 27 23 16 1 333 305 301 310 319 323 327 338 359 35 47 48 43 39 285 226
141 147 145 144 165 189 219 251 276 307 333 355 20 36 39 39 36 32 26 22 20 18 19 17 12 3 345 325 302 285 282 291 301 307 308 310 323 29 66 64 61 67 137
155 166 166 163 195 247 282 299 307 313 322 337 5 25 31 30 26 19 12 7 7 10 14 14 12 7 351 327 309 294 282 279 290 300 298 294 288 280 232 219 218 215 239
182 196 205 211 239 268 287 301 308 311 313 317 334 357 5 0 356 354 352 352 355 1 6 8 11 11 5 343 318 301 290 284 285 292 293 281 272 269 258 257 253 240 245
226 232 237 244 255 265 278 292 304 305 303 299 297 304 317 324 326 328 333 335 340 350 359 3 6 7 4 356 337 307 289 283 283 290 291 280 267 267 267 270 279 258 243
251 254 256 263 267 271 277 283 290 292 289 285 281 285 295 305 310 311 312 312 315 326 342 350 356 2 1 359 349 325 292 279 276 280 284 281 271 267 269 272 283 292 285
267 263 263 267 270 273 276 281 283 285 281 279 281 286 291 296 301 302 300 291 285 290 311 334 348 356 358 359 357 342 311 283 274 275 278 280 275 270 269 272 279 284 289
274 272 270 270 273 275 277 281 284 285 284 286 289 292 294 296 297 297 294 280 268 268 281 308 333 347 352 356 358 354 339 306 281 275 275 276 277 276 273 272 276 282 284
274 272 273 274 276 277 281 286 289 288 289 290 293 297 298 296 294 292 288 275 261 259 265 280 306 325 339 348 351 351 349 334 305 284 278 276 275 277 278 277 276 278 281
274 271 271 276 278 277 281 286 291 292 292 291 294 296 296 295 292 288 282 274 264 259 258 264 279 298 314 329 340 344 342 339 325 302 287 280 277 276 277 279 278 277 277
271 270 270 272 275 275 277 280 283 286 288 290 290 291 290 289 286 283 279 274 269 262 259 261 268 281 296 308 319 329 332 330 327 317 303 289 280 276 274 274 276 276 277
270 268 267 265 267 268 270 274 278 280 281 282 284 285 285 284 282 279 275 273 271 267 266 266 268 276 285 294 303 312 321 323 320 316 309 301 291 282 275 272 272 272 275
269 267 264 262 263 265 267 270 273 276 278 279 280 281 282 281 279 277 275 273 272 269 270 269 271 276 280 285 291 298 305 311 311 309 305 302 297 291 283 275 271 269 270
269 268 266 264 264 265 267 269 270 272 274 276 277 278 279 280 279 276 274 273 272 271 270 269 271 275 278 281 285 290 295 299 301 301 300 298 296 293 288 281 273 269 267
269 268 268 267 266 266 266 267 268 270 271 273 275 276 278 278 278 277 275 274 274 272 269 269 272 275 278 281 284 287 290 291 294 294 293 291 290 288 287 283 277 270 267
270 269 269 269 267 267 268 268 269 269 270 271 273 274 275 275 275 275 274 275 274 272 270 270 274 277 279 281 283 285 286 288 289 290 289 287 285 283 282 280 278 273 269
270 269 268 267 266 265 266 267 267 268 268 269 270 271 271 271 271 271 271 272 273 272 269 270 273 276 277 279 281 283 284 285 286 287 287 286 284 281 279 277 275 274 272
270 269 267 266 265 265 265 266 266 267 268 269 270 271 270 270 269 267 267 268 269 268 267 269 273 275 276 277 278 280 282 284 284 285 285 285 283 280 277 275 273 271 271
268 268 267 266 266 267 267 268 268 268 269 271 273 274 274 271 269 266 263 264 264 265 265 267 271 273 273 275 277 279 281 283 285 285 285 283 282 280 277 275 272 269 268
266 266 266 267 268 268 269 270 270 271 270 273 276 278 278 276 274 270 263 260 260 259 260 263 266 269 269 271 275 279 282 284 285 286 285 283 282 280 277 274 271 267 265
264 265 265 266 266 269 271 273 274 274 275 277 279 281 283 282 282 277 266 259 256 256 258 259 262 263 266 269 274 279 283 285 286 286 284 283 282 281 278 274 271 267 264
267 267 268 268 268 270 271 274 275 276 277 278 281 282 284 287 286 281 270 258 254 253 255 255 256 259 264 269 274 278 283 285 287 287 283 281 281 281 279 276 272 268 265
269 269 269 269 270 270 271 273 274 275 276 278 280 282 284 286 286 283 276 261 256 253 252 251 254 258 263 269 274 278 281 283 284 284 281 278 279 280 279 277 273 270 267
Height
5934 5934 5934 5935 5935 5935 5934 5933 5932 5931 5930 5929 5928 5927 5925 5924 5923 5922 5920 5919 5918 5917 5915 5914 5913 5912 5911 5909 5908 5907 5906 5905 5904 5903 5903 5902 5901 5900 5900 5899 5899 5899 5899
5936 5935 5935 5936 5936 5936 5935 5935 5934 5932 5931 5930 5929 5928 5927 5925 5924 5923 5922 5921 5920 5918 5917 5916 5914 5913 5912 5911 5909 5908 5907 5906 5905 5904 5903 5902 5902 5901 5900 5900 5900 5900 5899
5938 5937 5936 5936 5936 5936 5936 5936 5935 5934 5932 5931 5930 5929 5927 5926 5925 5924 5923 5922 5921 5920 5918 5917 5915 5914 5913 5912 5910 5909 5908 5907 5906 5905 5904 5903 5902 5901 5901 5900 5900 5899 5899
5939 5939 5938 5938 5937 5937 5937 5936 5935 5935 5934 5932 5931 5929 5928 5927 5926 5925 5924 5923 5922 5920 5919 5918 5916 5914 5913 5912 5910 5909 5908 5907 5906 5905 5904 5903 5902 5902 5901 5900 5900 5900 5899
5939 5939 5939 5938 5938 5938 5938 5937 5936 5935 5934 5933 5931 5930 5929 5928 5927 5926 5925 5924 5922 5921 5919 5918 5916 5914 5913 5911 5910 5909 5908 5907 5906 5905 5904 5903 5903 5902 5902 5901 5900 5900 5899
5939 5939 5939 5939 5939 5939 5939 5938 5937 5936 5935 5933 5932 5931 5930 5929 5928 5927 5926 5925 5923 5921 5919 5918 5916 5914 5912 5911 5909 5908 5907 5906 5905 5905 5904 5904 5903 5902 5902 5901 5900 5900 5899
5939 5939 5939 5939 5939 5939 5939 5938 5938 5936 5935 5934 5932 5931 5930 5930 5929 5927 5926 5925 5923 5921 5919 5917 5916 5914 5912 5910 5908 5907 5906 5906 5905 5904 5904 5903 5903 5902 5901 5900 5900 5899 5898
5939 5938 5938 5938 5938 5938 5938 5938 5937 5936 5934 5933 5932 5931 5930 5929 5928 5927 5926 5924 5923 5921 5919 5917 5915 5913 5911 5909 5907 5906 5905 5904 5904 5903 5903 5902 5902 5901 5900 5899 5898 5897 5897
5937 5937 5936 5936 5936 5936 5936 5936 5935 5934 5933 5932 5931 5930 5929 5928 5927 5925 5924 5923 5922 5921 5919 5917 5915 5913 5911 5909 5906 5905 5904 5902 5902 5901 5901 5901 5900 5899 5899 5898 5897 5896 5895
5935 5935 5934 5934 5934 5934 5934 5934 5933 5932 5932 5930 5929 5928 5927 5925 5924 5922 5921 5921 5920 5919 5918 5916 5914 5913 5910 5908 5906 5904 5902 5901 5900 5899 5899 5899 5899 5898 5897 5896 5896 5895 5894
5933 5932 5932 5932 5932 5932 5931 5931 5931 5930 5929 5928 5926 5925 5923 5922 5921 5920 5919 5918 5917 5916 5916 5915 5913 5911 5910 5908 5905 5903 5901 5900 5898 5897 5897 5897 5896 5896 5895 5894 5893 5892 5892
5930 5929 5929 5929 5929 5929 5929 5928 5928 5927 5926 5925 5923 5922 5920 5919 5918 5917 5916 5915 5914 5913 5913 5912 5911 5909 5908 5906 5904 5902 5900 5898 5897 5895 5894 5894 5893 5893 5892 5892 5891 5890 5889
5927 5927 5926 5926 5926 5926 5926 5925 5924 5923 5922 5921 5920 5919 5918 5916 5915 5914 5913 5912 5911 5910 5909 5909 5908 5907 5906 5904 5902 5900 5898 5897 5895 5893 5892 5891 5890 5890 5889 5889 5888 5887 5886
5924 5924 5923 5923 5923 5922 5922 5921 5920 5920 5919 5918 5917 5916 5915 5913 5912 5911 5909 5908 5908 5906 5906 5905 5904 5903 5902 5901 5899 5898 5896 5895 5893 5891 5890 5888 5887 5886 5886 5885 5884 5884 5883
5921 5920 5920 5919 5918 5918 5917 5916 5916 5915 5914 5914 5913 5912 5911 5910 5909 5907 5906 5905 5903 5902 5901 5901 5900 5899 5899 5897 5896 5895 5893 5891 5890 5888 5887 5885 5883 5882 5881 5881 5880 5880 5879
5916 5916 5915 5914 5914 5913 5912 5911 5911 5910 5909 5909 5908 5907 5906 5905 5904 5903 5901 5900 5899 5898 5897 5896 5896 5895 5894 5893 5892 5890 5889 5887 5886 5884 5883 5881 5880 5878 5877 5876 5876 5875 5875
5912 5911 5910 5909 5909 5908 5907 5906 5905 5904 5904 5903 5902 5902 5901 5900 5898 5897 5896 5895 5894 5893 5892 5891 5891 5890 5889 5888 5887 5885 5884 5882 5881 5880 5878 5877 5875 5874 5873 5872 5871 5870 5870
5906 5905 5905 5904 5903 5902 5900 5899 5898 5898 5897 5896 5895 5895 5894 5893 5892 5890 5889 5888 5888 5887 5886 5885 5885 5884 5883 5882 5881 5880 5878 5877 5875 5874 5872 5871 5870 5869 5868 5867 5866 5865 5864
5900 5899 5898 5898 5897 5895 5894 5893 5892 5891 5890 5889 5888 5887 5886 5885 5883 5882 5880 5880 5880 5880 5879 5878 5878 5877 5876 5875 5874 5873 5871 5870 5868 5867 5866 5864 5863 5862 5861 5860 5859 5859 5858
5892 5891 5891 5890 5889 5887 5886 5885 5884 5883 5882 5880 5879 5878 5876 5875 5874 5872 5871 5870 5870 5871 5870 5870 5870 5869 5868 5867 5866 5865 5864 5862 5861 5859 5858 5856 5856 5855 5854 5853 5852 5852 5851
5883 5882 5882 5881 5880 5879 5878 5876 5875 5874 5872 5871 5869 5867 5865 5864 5862 5860 5859 5859 5859 5860 5860 5860 5860 5860 5859 5858 5857 5857 5857 5855 5853 5851 5849 5848 5847 5846 5846 5845 5844 5844 5843
5874 5873 5872 5872 5871 5870 5869 5867 5866 5865 5863 5861 5859 5857 5855 5852 5850 5848 5846 5847 5847 5848 5850 5851 5851 5851 5850 5849 5848 5848 5849 5848 5845 5843 5841 5839 5838 5837 5837 5836 5836 5836 5835
5865 5864 5864 5863 5862 5860 5859 5857 5855 5853 5851 5850 5848 5845 5842 5839 5836 5833 5832 5832 5833 5836 5839 5841 5842 5842 5841 5841 5839 5839 5839 5839 5837 5836 5832 5830 5828 5827 5827 5827 5827 5827 5826
5856 5855 5854 5853 5851 5850 5848 5845 5843 5841 5839 5837 5835 5833 5830 5826 5824 5820 5818 5819 5821 5825 5828 5830 5831 5832 5832 5832 5831 5830 5829 5828 5827 5827 5824 5821 5819 5818 5817 5817 5817 5817 5817
5846 5845 5844 5842 5841 5840 5837 5835 5831 5829 5826 5824 5823 5821 5817 5816 5814 5810 5807 5807 5810 5813 5817 5819 5822 5823 5823 5823 5823 5821 5820 5818 5817 5817 5816 5813 5810 5809 5808 5808 5808 5808 5808
5835 5833 5832 5831 5829 5827 5825 5822 5818 5816 5813 5811 5809 5807 5806 5804 5803 5802 5800 5799 5801 5804 5807 5809 5812 5813 5814 5814 5813 5812 5811 5810 5809 5808 5808 5806 5803 5801 5800 5799 5799 5800 5800